SQ6MTB Weather Reports


Display with metric or nautical units.
time (UTC)temp
F
wind
direction
speed
MPH
gust
MPH
rain 1hr
in
rain 24hr
in
rain mn
in
humidity
%
barometer
mb
20260831024100 58 242 0.0 0.0 0.00 0.00 0.00 85 1013.2
20260831024008 58 242 0.0 0.0 0.00 0.00 0.00 85 1013.2
20260831023546 58 242 0.0 0.0 0.00 0.00 0.00 85 1013.1
20260831023102 58 242 0.0 0.0 0.00 0.00 0.00 85 1013.2
20260831022508 58 242 0.0 0.0 0.00 0.00 0.00 84 1013.3
20260831022050 58 242 0.0 0.0 0.00 0.00 0.00 84 1013.3
20260831021557 58 242 0.0 0.0 0.00 0.00 0.00 84 1013.4
20260831021009 58 242 0.0 0.0 0.00 0.00 0.00 83 1013.4
20260831020520 58 242 0.0 0.0 0.00 0.00 0.00 83 1013.5
20260831020114 58 242 0.0 0.0 0.00 0.00 0.00 83 1013.5
20260831020004 58 242 0.0 0.0 0.00 0.00 0.00 83 1013.5
20260831015512 59 242 0.0 0.0 0.00 0.00 0.00 83 1013.6
20260831015019 59 242 0.0 0.0 0.00 0.00 0.00 83 1013.5
20260831014527 59 242 0.0 0.0 0.00 0.00 0.00 83 1013.6
20260831014009 59 242 0.0 0.0 0.00 0.00 0.00 82 1013.7
20260831013549 59 242 0.0 0.0 0.00 0.00 0.00 82 1013.7
20260831013100 59 242 0.0 0.0 0.00 0.00 0.00 82 1013.7
20260831013001 59 242 0.0 0.0 0.00 0.00 0.00 82 1013.6
20260831012511 59 242 0.0 0.0 0.00 0.00 0.00 82 1013.5
20260831012051 59 242 0.0 0.0 0.00 0.00 0.00 83 1013.6
20260831011606 59 242 0.0 0.0 0.00 0.00 0.00 83 1013.6
20260831011503 59 242 0.0 0.0 0.00 0.00 0.00 82 1013.6
20260831011009 59 242 0.0 0.0 0.00 0.00 0.00 82 1013.6
20260831010518 60 242 0.0 0.0 0.00 0.00 0.00 82 1013.7
20260831010057 60 242 0.0 0.0 0.00 0.00 0.00 82 1013.7
20260831005509 60 242 0.0 0.0 0.00 0.00 0.00 82 1013.8
20260831005021 60 242 0.0 0.0 0.00 0.00 0.00 82 1013.8
20260831004537 60 242 0.0 0.0 0.00 0.00 0.00 82 1013.9
20260831004049 60 242 0.0 0.0 0.00 0.00 0.00 81 1013.8
20260831003556 60 242 0.0 0.0 0.00 0.00 0.00 81 1013.8
20260831003008 61 242 0.0 0.0 0.00 0.00 0.00 81 1013.6
20260831002543 61 242 0.0 0.0 0.00 0.00 0.00 81 1013.9
20260831002031 61 242 0.0 0.0 0.00 0.00 0.00 80 1013.8
20260831001535 61 242 0.0 0.0 0.00 0.00 0.00 80 1013.8
20260831001039 61 242 0.0 0.0 0.00 0.00 0.00 81 1013.8
20260831000519 61 242 0.0 0.0 0.00 0.00 0.00 80 1013.8
20260831000059 61 242 0.0 0.0 0.00 0.00 0.00 80 1013.8
20260831000001 61 242 0.0 0.0 0.00 0.00 0.00 80 1013.8
20260830235509 62 242 0.0 0.0 0.00 0.00 0.00 80 1013.9
20260830235025 62 242 0.0 0.0 0.00 0.00 0.00 80 1013.9
20260830234611 62 242 0.0 0.0 0.00 0.00 0.00 80 1013.9
20260830234501 62 242 0.0 0.0 0.00 0.00 0.00 80 1013.9
20260830234015 62 242 0.0 0.0 0.00 0.00 0.00 80 1013.8
20260830233521 62 242 0.0 0.0 0.00 0.00 0.00 80 1013.9
20260830233028 62 242 0.0 0.0 0.00 0.00 0.00 80 1013.9
20260830232513 62 242 0.0 0.0 0.00 0.00 0.00 80 1013.9
20260830232027 62 242 0.0 0.0 0.00 0.00 0.00 79 1013.9
20260830231536 63 242 0.0 0.0 0.00 0.00 0.00 79 1013.9
20260830231042 63 242 0.0 0.0 0.00 0.00 0.00 79 1014.0
20260830230525 63 242 0.0 0.0 0.00 0.00 0.00 79 1013.9
20260830230035 63 242 0.0 0.0 0.00 0.00 0.00 79 1014.0
20260830225544 63 242 0.0 0.0 0.00 0.00 0.00 79 1014.0
20260830225030 63 242 0.0 0.0 0.00 0.00 0.00 79 1013.9
20260830224509 63 242 0.0 0.0 0.00 0.00 0.00 79 1014.0
20260830224017 63 242 0.0 0.0 0.00 0.00 0.00 79 1013.9
20260830223525 63 242 0.0 0.0 0.00 0.00 0.00 79 1014.0
20260830223008 64 242 0.0 0.0 0.00 0.00 0.00 78 1014.0
20260830222547 64 242 0.0 0.0 0.00 0.00 0.00 78 1014.0
20260830222056 64 242 0.0 0.0 0.00 0.00 0.00 78 1013.9
20260830221511 64 242 0.0 0.0 0.00 0.00 0.00 78 1014.0
20260830221016 64 242 0.0 0.0 0.00 0.00 0.00 78 1014.0
20260830220557 64 242 0.0 0.0 0.00 0.00 0.00 78 1014.0
20260830220009 64 242 0.0 0.0 0.00 0.00 0.00 78 1013.9
20260830215513 64 242 0.0 0.0 0.00 0.00 0.00 78 1014.0
20260830215023 64 242 0.0 3.0 0.00 0.00 0.00 78 1014.0
20260830214603 64 242 0.0 3.0 0.00 0.00 0.00 78 1014.0
20260830214502 64 242 0.0 3.0 0.00 0.00 0.00 78 1014.1
20260830214011 64 240 0.0 2.0 0.00 0.00 0.00 78 1014.0
20260830213524 64 248 0.0 2.0 0.00 0.00 0.00 78 1014.0
20260830213044 64 248 0.0 2.0 0.00 0.00 0.00 78 1014.0
20260830212515 64 248 0.0 4.0 0.00 0.00 0.00 78 1014.0
20260830212054 64 248 0.0 4.0 0.00 0.00 0.00 78 1013.9
20260830211503 64 242 2.0 4.0 0.00 0.00 0.00 78 1013.9
20260830211042 65 245 0.0 2.0 0.00 0.00 0.00 78 1013.8
20260830210552 65 245 0.0 4.0 0.00 0.00 0.00 78 1013.9
20260830210008 65 245 2.0 4.0 0.00 0.00 0.00 78 1013.9
20260830205515 65 237 1.0 4.0 0.00 0.00 0.00 78 1013.9
20260830205020 65 237 1.0 4.0 0.00 0.00 0.00 78 1013.8
20260830204610 65 237 0.0 0.0 0.00 0.00 0.00 78 1013.7
20260830204502 65 237 0.0 0.0 0.00 0.00 0.00 78 1013.8
20260830204010 65 237 0.0 0.0 0.00 0.00 0.00 78 1013.7
20260830203518 65 237 0.0 0.0 0.00 0.00 0.00 78 1013.7
20260830203041 65 237 0.0 0.0 0.00 0.00 0.00 78 1013.6
20260830202513 65 237 0.0 0.0 0.00 0.00 0.00 78 1013.6
20260830202026 65 237 0.0 0.0 0.00 0.00 0.00 78 1013.6
20260830201530 65 237 0.0 0.0 0.00 0.00 0.00 78 1013.6
20260830201017 65 237 0.0 0.0 0.00 0.00 0.00 78 1013.6
20260830200558 65 237 0.0 0.0 0.00 0.00 0.00 77 1013.6
20260830200008 65 237 0.0 0.0 0.00 0.00 0.00 77 1013.6
20260830195518 66 237 0.0 0.0 0.00 0.00 0.00 77 1013.6
20260830195101 66 237 0.0 0.0 0.00 0.00 0.00 78 1013.6
20260830195005 66 237 0.0 0.0 0.00 0.00 0.00 78 1013.6
20260830194512 66 237 0.0 0.0 0.00 0.00 0.00 78 1013.6
20260830194021 66 237 0.0 0.0 0.00 0.00 0.00 78 1013.6
20260830193556 66 237 0.0 0.0 0.00 0.00 0.00 77 1013.5
20260830193505 66 237 0.0 0.0 0.00 0.00 0.00 77 1013.5
20260830193044 66 237 0.0 0.0 0.00 0.00 0.00 77 1013.5
20260830192554 67 237 0.0 0.0 0.00 0.00 0.00 77 1013.4
20260830192100 67 237 0.0 0.0 0.00 0.00 0.00 77 1013.4
20260830192006 67 237 0.0 0.0 0.00 0.00 0.00 77 1013.4
20260830191546 67 237 0.0 0.0 0.00 0.00 0.00 76 1013.4
20260830191054 67 237 0.0 0.0 0.00 0.00 0.00 76 1013.5
20260830190506 68 237 0.0 0.0 0.00 0.00 0.00 76 1013.5
20260830190014 68 237 0.0 0.0 0.00 0.00 0.00 75 1013.5
20260830185555 68 237 0.0 0.0 0.00 0.00 0.00 75 1013.4
20260830185009 68 237 0.0 0.0 0.00 0.00 0.00 74 1013.4
20260830184548 69 237 0.0 0.0 0.00 0.00 0.00 73 1013.4
20260830184035 69 237 0.0 0.0 0.00 0.00 0.00 73 1013.3
20260830183539 69 237 0.0 0.0 0.00 0.00 0.00 72 1013.2
20260830183020 70 237 0.0 0.0 0.00 0.00 0.00 72 1013.2
20260830182600 70 237 0.0 0.0 0.00 0.00 0.00 71 1013.2
20260830182504 70 237 0.0 0.0 0.00 0.00 0.00 71 1013.1
20260830182012 70 237 0.0 0.0 0.00 0.00 0.00 70 1013.1
20260830181521 71 237 0.0 0.0 0.00 0.00 0.00 70 1013.0
20260830181056 71 237 0.0 0.0 0.00 0.00 0.00 69 1013.0
20260830180542 72 237 0.0 0.0 0.00 0.00 0.00 68 1013.0
20260830180054 72 237 0.0 0.0 0.00 0.00 0.00 67 1013.0
20260830175554 72 237 0.0 0.0 0.00 0.00 0.00 66 1012.9
20260830175502 72 237 0.0 0.0 0.00 0.00 0.00 66 1012.9
20260830175036 73 237 0.0 0.0 0.00 0.00 0.00 65 1012.9
20260830174526 73 237 0.0 0.0 0.00 0.00 0.00 65 1012.8
20260830174036 74 237 0.0 2.0 0.00 0.00 0.00 64 1012.9
20260830173547 74 237 0.0 4.0 0.00 0.00 0.00 63 1012.8
20260830173024 74 232 1.0 4.0 0.00 0.00 0.00 62 1012.8
20260830172506 75 235 1.0 4.0 0.00 0.00 0.00 61 1012.7
20260830172014 75 276 1.0 6.0 0.00 0.00 0.00 61 1012.7
20260830171523 75 271 1.0 6.0 0.00 0.00 0.00 61 1012.7
20260830171056 75 269 2.0 7.0 0.00 0.00 0.00 60 1012.6
20260830171005 75 275 2.0 7.0 0.00 0.00 0.00 60 1012.6
20260830170540 76 262 3.0 8.0 0.00 0.00 0.00 59 1012.6
20260830170048 76 268 3.0 8.0 0.00 0.00 0.00 58 1012.6
20260830165554 76 246 3.0 8.0 0.00 0.00 0.00 58 1012.5
20260830165006 77 257 4.0 7.0 0.00 0.00 0.00 57 1012.5
20260830164544 77 281 2.0 7.0 0.00 0.00 0.00 57 1012.4
20260830164028 77 244 1.0 8.0 0.00 0.00 0.00 57 1012.5
20260830163543 77 223 4.0 8.0 0.00 0.00 0.00 57 1012.5
20260830163046 77 257 3.0 10.0 0.00 0.00 0.00 56 1012.5
20260830162550 77 273 3.0 10.0 0.00 0.00 0.00 56 1012.6
20260830162037 77 237 6.0 10.0 0.00 0.00 0.00 56 1012.5
20260830161600 77 244 5.0 10.0 0.00 0.00 0.00 56 1012.5
20260830161056 77 284 6.0 11.0 0.00 0.00 0.00 55 1012.5
20260830160603 77 276 7.0 12.0 0.00 0.00 0.00 55 1012.4
20260830160502 77 277 6.0 12.0 0.00 0.00 0.00 55 1012.5
20260830160013 78 269 7.0 14.0 0.00 0.00 0.00 54 1012.5
20260830155544 78 271 7.0 14.0 0.00 0.00 0.00 53 1012.6
20260830155030 79 261 8.0 14.0 0.00 0.00 0.00 52 1012.5
20260830154541 79 227 9.0 16.0 0.00 0.00 0.00 52 1012.5
20260830154046 79 265 8.0 16.0 0.00 0.00 0.00 52 1012.4
20260830153553 79 265 9.0 14.0 0.00 0.00 0.00 52 1012.6
20260830153101 80 236 7.0 13.0 0.00 0.00 0.00 52 1012.5
20260830152542 80 250 7.0 13.0 0.00 0.00 0.00 52 1012.6
20260830152051 80 248 8.0 15.0 0.00 0.00 0.00 52 1012.6
20260830151603 80 268 7.0 15.0 0.00 0.00 0.00 52 1012.6
20260830151503 80 256 7.0 15.0 0.00 0.00 0.00 52 1012.6
20260830151038 80 171 4.0 13.0 0.00 0.00 0.00 52 1012.5
20260830150526 80 270 9.0 18.0 0.00 0.00 0.00 52 1012.6
20260830150028 80 263 8.0 16.0 0.00 0.00 0.00 51 1012.6
20260830145533 80 226 4.0 19.0 0.00 0.00 0.00 51 1012.6
20260830145044 80 213 9.0 19.0 0.00 0.00 0.00 51 1012.6
20260830144523 80 248 8.0 16.0 0.00 0.00 0.00 51 1012.6
20260830144005 80 245 9.0 15.0 0.00 0.00 0.00 52 1012.5
20260830143512 80 219 7.0 12.0 0.00 0.00 0.00 51 1012.6
20260830143024 80 279 5.0 13.0 0.00 0.00 0.00 51 1012.6
20260830142554 80 244 9.0 13.0 0.00 0.00 0.00 51 1012.6
20260830142042 80 282 5.0 12.0 0.00 0.00 0.00 50 1012.5
20260830141545 80 273 9.0 17.0 0.00 0.00 0.00 50 1012.5
20260830141049 80 217 8.0 18.0 0.00 0.00 0.00 50 1012.6
20260830140531 80 241 11.0 18.0 0.00 0.00 0.00 48 1012.6
20260830140017 81 244 8.0 18.0 0.00 0.00 0.00 47 1012.6
20260830135521 81 251 9.0 20.0 0.00 0.00 0.00 48 1012.5
20260830135030 81 234 9.0 20.0 0.00 0.00 0.00 49 1012.4
20260830134515 81 252 11.0 16.0 0.00 0.00 0.00 49 1012.4
20260830134054 80 221 7.0 18.0 0.00 0.00 0.00 50 1012.4
20260830133504 80 206 9.0 20.0 0.00 0.00 0.00 50 1012.4
20260830133011 81 287 12.0 19.0 0.00 0.00 0.00 48 1012.4
20260830132547 81 278 5.0 18.0 0.00 0.00 0.00 48 1012.3
20260830132030 81 261 12.0 18.0 0.00 0.00 0.00 47 1012.3
20260830131543 81 259 9.0 17.0 0.00 0.00 0.00 47 1012.3
20260830131052 81 257 8.0 15.0 0.00 0.00 0.00 48 1012.2
20260830130556 81 264 7.0 16.0 0.00 0.00 0.00 48 1012.2
20260830130503 81 221 7.0 16.0 0.00 0.00 0.00 48 1012.2
20260830130052 81 204 7.0 20.0 0.00 0.00 0.00 48 1012.3
20260830125525 81 223 8.0 20.0 0.00 0.00 0.00 47 1012.3
20260830125028 81 259 8.0 17.0 0.00 0.00 0.00 48 1012.3
20260830124534 81 207 7.0 17.0 0.00 0.00 0.00 49 1012.2
20260830124015 81 266 2.0 17.0 0.00 0.00 0.00 49 1012.1
20260830123556 80 242 10.0 17.0 0.00 0.00 0.00 48 1012.3
20260830123006 80 250 11.0 16.0 0.00 0.00 0.00 50 1012.3
20260830122514 79 297 5.0 15.0 0.00 0.00 0.00 51 1012.4
20260830122019 80 216 10.0 17.0 0.00 0.00 0.00 50 1012.4
20260830121556 81 261 7.0 19.0 0.00 0.00 0.00 50 1012.3
20260830121504 81 274 7.0 19.0 0.00 0.00 0.00 51 1012.3
20260830121041 80 169 2.0 19.0 0.00 0.00 0.00 54 1012.3
20260830120550 80 244 8.0 18.0 0.00 0.00 0.00 51 1012.3
20260830120058 80 250 7.0 18.0 0.00 0.00 0.00 53 1012.3
20260830115508 80 265 5.0 14.0 0.00 0.00 0.00 54 1012.3
20260830115016 79 286 6.0 13.0 0.00 0.00 0.00 55 1012.3
20260830114612 79 165 6.0 14.0 0.00 0.00 0.00 54 1012.3
20260830114006 79 218 7.0 14.0 0.00 0.00 0.00 52 1012.3
20260830113517 80 282 6.0 13.0 0.00 0.00 0.00 51 1012.3
20260830113021 80 264 7.0 15.0 0.00 0.00 0.00 51 1012.3
20260830112506 80 251 4.0 18.0 0.00 0.00 0.00 53 1012.2
20260830112011 80 250 6.0 18.0 0.00 0.00 0.00 51 1012.2
20260830111521 81 247 6.0 16.0 0.00 0.00 0.00 50 1012.2
20260830111028 81 234 5.0 13.0 0.00 0.00 0.00 50 1012.2
20260830110509 81 236 6.0 17.0 0.00 0.00 0.00 50 1012.3
20260830110020 80 222 8.0 19.0 0.00 0.00 0.00 52 1012.2
20260830105529 80 200 7.0 22.0 0.00 0.00 0.00 50 1012.4
20260830105042 80 293 10.0 22.0 0.00 0.00 0.00 51 1012.4
20260830104545 80 271 5.0 13.0 0.00 0.00 0.00 55 1012.4
20260830104027 80 144 6.0 13.0 0.00 0.00 0.00 55 1012.4
20260830103544 80 216 5.0 13.0 0.00 0.00 0.00 54 1012.4
20260830103049 79 222 4.0 16.0 0.00 0.00 0.00 55 1012.4
20260830102600 79 226 5.0 11.0 0.00 0.00 0.00 55 1012.4
20260830102059 79 234 5.0 16.0 0.00 0.00 0.00 56 1012.6
20260830102007 79 181 5.0 16.0 0.00 0.00 0.00 56 1012.4
20260830101552 78 173 7.0 19.0 0.00 0.00 0.00 58 1012.4
20260830101053 77 190 7.0 19.0 0.00 0.00 0.00 58 1012.6
20260830100600 76 198 5.0 18.0 0.00 0.00 0.00 61 1012.5
20260830100502 76 254 6.0 18.0 0.00 0.00 0.00 63 1012.5
20260830100009 75 253 9.0 18.0 0.00 0.00 0.00 62 1012.6
20260830095547 75 242 6.0 13.0 0.00 0.00 0.00 61 1012.6
20260830095026 75 256 5.0 12.0 0.00 0.00 0.00 62 1012.7
20260830094545 76 226 7.0 11.0 0.00 0.00 0.00 61 1012.7
20260830094048 76 267 4.0 15.0 0.00 0.00 0.00 61 1012.7
20260830093525 77 265 3.0 11.0 0.00 0.00 0.00 60 1012.7
20260830093009 77 235 3.0 17.0 0.00 0.00 0.00 59 1012.7
20260830092515 77 246 4.0 17.0 0.00 0.00 0.00 60 1012.7
20260830092023 77 239 7.0 17.0 0.00 0.00 0.00 59 1012.7
20260830091559 76 294 6.0 17.0 0.00 0.00 0.00 61 1012.7
20260830091506 76 259 6.0 17.0 0.00 0.00 0.00 61 1012.8
20260830091045 76 235 7.0 17.0 0.00 0.00 0.00 60 1012.8
20260830090554 76 262 9.0 18.0 0.00 0.00 0.00 60 1012.7
20260830090006 76 226 8.0 18.0 0.00 0.00 0.00 61 1012.6
20260830085539 76 244 9.0 15.0 0.00 0.00 0.00 61 1012.6
20260830085021 75 218 2.0 11.0 0.00 0.00 0.00 63 1012.7
20260830084529 75 179 4.0 13.0 0.00 0.00 0.00 64 1012.7
20260830084042 74 173 3.0 9.0 0.00 0.00 0.00 64 1012.7
20260830083548 74 154 2.0 7.0 0.00 0.00 0.00 66 1012.9
20260830083058 73 225 3.0 12.0 0.00 0.00 0.00 65 1012.7
20260830082531 73 234 3.0 11.0 0.00 0.00 0.00 65 1012.7
20260830082015 74 227 3.0 13.0 0.00 0.00 0.00 64 1012.7
20260830081521 74 234 4.0 13.0 0.00 0.00 0.00 64 1012.8
20260830081027 74 327 7.0 15.0 0.00 0.00 0.00 63 1012.8
20260830080537 73 255 6.0 15.0 0.00 0.00 0.00 64 1012.9
20260830080019 73 245 5.0 12.0 0.00 0.00 0.00 64 1012.9
20260830075600 73 236 5.0 12.0 0.00 0.00 0.00 64 1012.8
20260830075500 73 155 4.0 11.0 0.00 0.00 0.00 65 1012.8
20260830075010 73 190 4.0 9.0 0.00 0.00 0.00 66 1012.8
20260830074517 73 246 1.0 10.0 0.00 0.00 0.00 65 1012.9
20260830074025 73 273 1.0 8.0 0.00 0.00 0.00 67 1012.8
20260830073507 72 242 0.0 13.0 0.00 0.00 0.00 69 1012.9
20260830073047 72 189 2.0 10.0 0.00 0.00 0.00 67 1012.7
20260830072557 71 175 2.0 8.0 0.00 0.00 0.00 69 1012.8
20260830072005 70 257 1.0 8.0 0.00 0.00 0.00 70 1012.9
20260830071514 70 27 3.0 8.0 0.00 0.00 0.00 69 1012.9
20260830071022 70 174 2.0 8.0 0.00 0.00 0.00 70 1012.8
20260830070504 70 207 2.0 7.0 0.00 0.00 0.00 70 1012.9
20260830070015 69 188 0.0 7.0 0.00 0.00 0.00 71 1012.7
20260830065519 69 121 1.0 8.0 0.00 0.00 0.00 71 1012.7
20260830065029 68 177 1.0 6.0 0.00 0.00 0.00 72 1012.7
20260830064509 67 219 0.0 8.0 0.00 0.00 0.00 73 1012.8
20260830064049 67 193 0.0 8.0 0.00 0.00 0.00 74 1012.8
20260830063557 67 173 0.0 5.0 0.00 0.00 0.00 73 1012.8
20260830063007 67 219 1.0 8.0 0.00 0.00 0.00 73 1012.9
20260830062552 67 252 2.0 8.0 0.00 0.00 0.00 73 1012.8
20260830062055 67 209 0.0 5.0 0.00 0.00 0.00 73 1012.9
20260830061503 67 151 0.0 8.0 0.00 0.00 0.00 73 1012.9
20260830061012 67 200 0.0 11.0 0.00 0.00 0.00 73 1012.9
20260830060520 66 165 2.0 11.0 0.00 0.00 0.00 74 1012.9
20260830060055 66 202 0.0 8.0 0.00 0.00 0.00 74 1012.9
20260830055540 66 170 2.0 8.0 0.00 0.00 0.00 74 1012.9
20260830055049 66 271 0.0 6.0 0.00 0.00 0.00 74 1012.9
20260830054556 65 251 0.0 8.0 0.00 0.00 0.00 74 1013.0
20260830054006 65 160 1.0 7.0 0.00 0.00 0.00 74 1013.0
20260830053514 65 194 0.0 8.0 0.00 0.00 0.00 74 1013.1
20260830053100 66 218 1.0 9.0 0.00 0.00 0.00 74 1013.0
20260830052507 66 248 2.0 6.0 0.00 0.00 0.00 74 1012.8
20260830052017 65 229 1.0 9.0 0.00 0.00 0.00 74 1012.8
20260830051521 65 227 0.0 10.0 0.00 0.00 0.00 74 1012.7
20260830051057 65 178 0.0 5.0 0.00 0.00 0.00 74 1012.7
20260830050543 65 232 0.0 4.0 0.00 0.00 0.00 74 1012.7
20260830045501 65 213 0.0 10.0 0.00 0.00 0.00 74 1012.7
20260830045038 65 168 2.0 10.0 0.00 0.00 0.00 74 1012.7
20260830044520 65 192 2.0 7.0 0.00 0.00 0.00 74 1012.7
20260830044029 65 197 1.0 7.0 0.00 0.00 0.00 74 1012.6
20260830043543 65 200 1.0 7.0 0.00 0.00 0.00 74 1012.6
20260830043106 65 201 1.0 8.0 0.00 0.00 0.00 74 1012.7
20260830042555 65 170 0.0 9.0 0.00 0.00 0.00 74 1012.7
20260830042504 65 284 0.0 9.0 0.00 0.00 0.00 74 1012.7
20260830042040 65 220 2.0 8.0 0.00 0.00 0.00 74 1012.7
20260830041600 65 169 0.0 9.0 0.00 0.00 0.00 74 1012.7
20260830041056 65 198 1.0 9.0 0.00 0.00 0.00 73 1012.8
20260830040508 65 273 1.0 8.0 0.00 0.00 0.00 73 1012.9
20260830040106 65 186 1.0 7.0 0.00 0.00 0.00 73 1012.8
20260830035527 65 130 0.0 6.0 0.00 0.00 0.00 73 1012.8
20260830035044 65 217 0.0 9.0 0.00 0.00 0.00 73 1012.8
20260830034546 65 240 1.0 9.0 0.00 0.00 0.00 73 1012.8
20260830034052 65 200 2.0 10.0 0.00 0.00 0.00 73 1012.7
20260830033556 64 167 2.0 10.0 0.00 0.00 0.00 73 1012.8
20260830033506 64 167 2.0 10.0 0.00 0.00 0.00 73 1012.8
20260830033045 64 171 1.0 7.0 0.00 0.00 0.00 73 1012.7
20260830032555 65 174 1.0 6.0 0.00 0.00 0.00 73 1012.8
20260830032004 65 165 0.0 8.0 0.00 0.00 0.00 72 1012.7
20260830031520 65 166 1.0 9.0 0.00 0.00 0.00 72 1012.8
20260830031051 65 218 3.0 12.0 0.00 0.00 0.00 72 1012.8
20260830030532 65 181 3.0 12.0 0.00 0.00 0.00 72 1012.7
20260830030045 65 140 1.0 9.0 0.00 0.01 0.00 72 1012.8
20260830025553 65 200 0.0 9.0 0.00 0.01 0.00 72 1012.8
20260830025057 65 186 0.0 8.0 0.00 0.01 0.00 72 1012.9
20260830025002 65 177 0.0 8.0 0.00 0.01 0.00 72 1012.9
20260830024544 65 188 0.0 8.0 0.00 0.01 0.00 72 1013.0